QPF
0.00 0.00 0.00 0.00 0.00 0.00 0.00 0.00 0.00 0.00 0.00 0.00 0.00 0.00 0.00 0.00 0.00 0.00 0.00 0.00 0.00 0.00 0.00 0.00 0.00 0.00 0.00 0.00 0.00 0.00 0.00 0.00 0.00 0.00 0.00 0.00 0.00 0.00 0.00 0.00 0.00 0.00 0.00 0.00 0.00 0.00 0.00 0.00 0.00
0.00 0.00 0.00 0.00 0.00 0.00 0.00 0.00 0.00 0.00 0.00 0.00 0.00 0.00 0.00 0.00 0.00 0.00 0.00 0.00 0.00 0.00 0.00 0.00 0.00 0.00 0.00 0.00 0.00 0.00 0.00 0.00 0.00 0.00 0.00 0.00 0.00 0.00 0.00 0.00 0.00 0.00 0.00 0.00 0.00 0.00 0.00 0.00 0.00
0.00 0.00 0.00 0.00 0.00 0.00 0.00 0.00 0.00 0.00 0.00 0.00 0.00 0.00 0.00 0.00 0.00 0.00 0.00 0.00 0.00 0.00 0.00 0.00 0.00 0.00 0.00 0.00 0.00 0.00 0.00 0.00 0.00 0.00 0.00 0.00 0.00 0.00 0.00 0.00 0.00 0.00 0.00 0.00 0.00 0.00 0.00 0.00 0.00
0.00 0.00 0.00 0.00 0.00 0.00 0.00 0.00 0.00 0.00 0.00 0.00 0.00 0.00 0.00 0.00 0.00 0.00 0.00 0.00 0.00 0.00 0.00 0.00 0.00 0.00 0.00 0.00 0.00 0.00 0.00 0.00 0.00 0.00 0.00 0.00 0.00 0.00 0.00 0.00 0.00 0.00 0.00 0.00 0.00 0.00 0.00 0.00 0.00
0.00 0.00 0.00 0.00 0.00 0.00 0.00 0.00 0.00 0.00 0.00 0.00 0.00 0.00 0.00 0.00 0.00 0.00 0.00 0.00 0.00 0.00 0.00 0.00 0.00 0.00 0.00 0.00 0.00 0.00 0.00 0.00 0.00 0.00 0.00 0.00 0.00 0.00 0.00 0.00 0.00 0.00 0.00 0.00 0.00 0.00 0.00 0.00 0.00
0.00 0.00 0.00 0.00 0.00 0.00 0.00 0.00 0.00 0.00 0.00 0.00 0.00 0.00 0.00 0.00 0.00 0.00 0.00 0.00 0.00 0.00 0.00 0.00 0.00 0.00 0.00 0.00 0.00 0.00 0.00 0.00 0.00 0.00 0.00 0.00 0.00 0.00 0.00 0.00 0.00 0.00 0.00 0.00 0.00 0.00 0.00 0.00 0.00
0.00 0.00 0.00 0.00 0.00 0.00 0.00 0.00 0.00 0.00 0.00 0.00 0.00 0.00 0.00 0.00 0.00 0.00 0.00 0.00 0.00 0.00 0.00 0.00 0.00 0.00 0.00 0.00 0.00 0.00 0.00 0.00 0.00 0.00 0.00 0.00 0.00 0.00 0.00 0.00 0.00 0.00 0.00 0.00 0.00 0.00 0.00 0.00 0.00
0.00 0.00 0.00 0.00 0.00 0.00 0.00 0.00 0.00 0.00 0.00 0.00 0.00 0.00 0.00 0.00 0.00 0.00 0.00 0.00 0.00 0.00 0.00 0.00 0.00 0.00 0.00 0.00 0.00 0.00 0.00 0.00 0.00 0.00 0.00 0.00 0.00 0.00 0.00 0.00 0.00 0.00 0.00 0.00 0.00 0.00 0.00 0.00 0.00
0.00 0.00 0.00 0.00 0.00 0.00 0.00 0.00 0.00 0.00 0.00 0.00 0.00 0.00 0.00 0.00 0.00 0.00 0.00 0.00 0.00 0.00 0.00 0.00 0.00 0.00 0.00 0.00 0.00 0.00 0.00 0.00 0.00 0.00 0.00 0.00 0.00 0.00 0.00 0.00 0.00 0.00 0.00 0.00 0.00 0.00 0.00 0.00 0.00
0.00 0.00 0.00 0.00 0.00 0.00 0.00 0.00 0.00 0.00 0.00 0.00 0.00 0.00 0.00 0.00 0.00 0.00 0.00 0.00 0.00 0.00 0.00 0.00 0.00 0.00 0.00 0.00 0.00 0.00 0.00 0.00 0.00 0.00 0.00 0.00 0.00 0.00 0.00 0.00 0.00 0.00 0.00 0.00 0.00 0.00 0.00 0.00 0.00
0.00 0.00 0.00 0.00 0.00 0.00 0.00 0.00 0.00 0.00 0.00 0.00 0.00 0.00 0.00 0.00 0.00 0.00 0.00 0.00 0.00 0.00 0.00 0.00 0.00 0.00 0.00 0.00 0.00 0.00 0.00 0.00 0.00 0.00 0.00 0.00 0.00 0.00 0.00 0.00 0.00 0.00 0.00 0.00 0.00 0.00 0.00 0.00 0.00
0.00 0.00 0.00 0.00 0.00 0.00 0.00 0.00 0.00 0.00 0.00 0.00 0.00 0.00 0.00 0.00 0.00 0.00 0.00 0.00 0.00 0.00 0.00 0.00 0.00 0.00 0.00 0.00 0.00 0.00 0.00 0.00 0.00 0.00 0.00 0.00 0.00 0.00 0.00 0.00 0.00 0.00 0.00 0.00 0.00 0.00 0.00 0.00 0.00
0.00 0.00 0.00 0.00 0.00 0.00 0.00 0.00 0.00 0.00 0.00 0.00 0.00 0.00 0.00 0.00 0.00 0.00 0.00 0.00 0.00 0.00 0.00 0.00 0.00 0.00 0.00 0.00 0.00 0.00 0.00 0.00 0.00 0.00 0.00 0.00 0.00 0.00 0.00 0.00 0.00 0.00 0.00 0.00 0.00 0.00 0.00 0.00 0.00
0.00 0.00 0.00 0.00 0.00 0.00 0.00 0.00 0.00 0.00 0.00 0.00 0.00 0.00 0.00 0.00 0.00 0.00 0.00 0.00 0.00 0.00 0.00 0.00 0.00 0.00 0.00 0.00 0.00 0.00 0.00 0.00 0.00 0.00 0.00 0.00 0.00 0.00 0.00 0.00 0.00 0.00 0.00 0.00 0.00 0.00 0.00 0.00 0.00
0.00 0.00 0.00 0.00 0.00 0.00 0.00 0.00 0.00 0.00 0.00 0.00 0.00 0.00 0.00 0.00 0.00 0.00 0.00 0.00 0.00 0.00 0.00 0.00 0.00 0.00 0.00 0.00 0.00 0.00 0.00 0.00 0.00 0.00 0.00 0.00 0.00 0.00 0.00 0.00 0.00 0.00 0.00 0.00 0.00 0.00 0.00 0.00 0.00
0.00 0.00 0.00 0.00 0.00 0.00 0.00 0.00 0.00 0.00 0.00 0.00 0.00 0.00 0.00 0.00 0.00 0.00 0.00 0.00 0.00 0.00 0.00 0.00 0.00 0.00 0.00 0.00 0.00 0.00 0.00 0.00 0.00 0.00 0.00 0.00 0.00 0.00 0.00 0.00 0.00 0.00 0.00 0.00 0.00 0.00 0.00 0.00 0.00
0.00 0.00 0.00 0.00 0.00 0.00 0.00 0.00 0.00 0.00 0.00 0.00 0.00 0.00 0.00 0.00 0.00 0.00 0.00 0.00 0.00 0.00 0.00 0.00 0.00 0.00 0.00 0.00 0.00 0.00 0.00 0.00 0.00 0.00 0.00 0.00 0.00 0.00 0.00 0.00 0.00 0.00 0.00 0.00 0.00 0.00 0.00 0.00 0.00
0.00 0.00 0.00 0.00 0.00 0.00 0.00 0.00 0.00 0.00 0.00 0.00 0.00 0.00 0.00 0.00 0.00 0.00 0.00 0.00 0.00 0.00 0.00 0.00 0.00 0.00 0.00 0.00 0.00 0.00 0.00 0.00 0.00 0.00 0.00 0.00 0.00 0.00 0.00 0.00 0.00 0.00 0.00 0.00 0.00 0.00 0.00 0.00 0.00
0.00 0.00 0.00 0.00 0.00 0.00 0.00 0.00 0.00 0.00 0.00 0.00 0.00 0.00 0.00 0.00 0.00 0.00 0.00 0.00 0.00 0.00 0.00 0.00 0.00 0.00 0.00 0.00 0.00 0.00 0.00 0.00 0.00 0.00 0.00 0.00 0.00 0.00 0.00 0.00 0.00 0.00 0.00 0.00 0.00 0.00 0.00 0.00 0.00
0.00 0.00 0.00 0.00 0.00 0.00 0.00 0.00 0.00 0.00 0.00 0.00 0.00 0.00 0.00 0.00 0.00 0.00 0.00 0.00 0.00 0.00 0.00 0.00 0.00 0.00 0.00 0.00 0.00 0.00 0.00 0.00 0.00 0.00 0.00 0.00 0.00 0.00 0.00 0.00 0.00 0.00 0.00 0.00 0.00 0.00 0.00 0.00 0.00
0.00 0.00 0.00 0.00 0.00 0.00 0.00 0.00 0.00 0.00 0.00 0.00 0.00 0.00 0.00 0.00 0.00 0.00 0.00 0.00 0.00 0.00 0.00 0.00 0.00 0.00 0.00 0.00 0.00 0.00 0.00 0.00 0.00 0.00 0.00 0.00 0.00 0.00 0.00 0.00 0.00 0.00 0.00 0.00 0.00 0.00 0.00 0.00 0.00
0.00 0.00 0.00 0.00 0.00 0.00 0.00 0.00 0.00 0.00 0.00 0.00 0.00 0.00 0.00 0.00 0.00 0.00 0.00 0.00 0.00 0.00 0.00 0.00 0.00 0.00 0.00 0.00 0.00 0.00 0.00 0.00 0.00 0.00 0.00 0.00 0.00 0.00 0.00 0.00 0.00 0.00 0.00 0.00 0.00 0.00 0.00 0.00 0.00
0.00 0.00 0.00 0.00 0.00 0.00 0.00 0.00 0.00 0.00 0.00 0.00 0.00 0.00 0.00 0.00 0.00 0.00 0.00 0.00 0.00 0.00 0.00 0.00 0.00 0.00 0.00 0.00 0.00 0.00 0.00 0.00 0.00 0.00 0.00 0.00 0.00 0.00 0.00 0.00 0.00 0.00 0.00 0.00 0.00 0.00 0.00 0.00 0.00
0.00 0.00 0.00 0.00 0.00 0.00 0.00 0.00 0.00 0.00 0.00 0.00 0.00 0.00 0.00 0.00 0.00 0.00 0.00 0.00 0.00 0.00 0.00 0.00 0.00 0.00 0.00 0.00 0.00 0.00 0.00 0.00 0.00 0.00 0.00 0.00 0.00 0.00 0.00 0.00 0.00 0.00 0.00 0.00 0.00 0.00 0.00 0.00 0.00
0.00 0.00 0.00 0.00 0.00 0.00 0.00 0.00 0.00 0.00 0.00 0.00 0.00 0.00 0.00 0.00 0.00 0.00 0.00 0.00 0.00 0.00 0.00 0.00 0.00 0.00 0.00 0.00 0.00 0.00 0.00 0.00 0.00 0.00 0.00 0.00 0.00 0.00 0.00 0.00 0.00 0.00 0.00 0.00 0.00 0.00 0.00 0.00 0.00
0.00 0.00 0.00 0.00 0.00 0.00 0.00 0.00 0.00 0.00 0.00 0.00 0.00 0.00 0.00 0.00 0.00 0.00 0.00 0.00 0.00 0.00 0.00 0.00 0.00 0.00 0.00 0.00 0.00 0.00 0.00 0.00 0.00 0.00 0.00 0.00 0.00 0.00 0.00 0.00 0.00 0.00 0.00 0.00 0.00 0.00 0.00 0.00 0.00
0.00 0.00 0.00 0.00 0.00 0.00 0.00 0.00 0.00 0.00 0.00 0.00 0.00 0.00 0.00 0.00 0.00 0.00 0.00 0.00 0.00 0.00 0.00 0.00 0.00 0.00 0.00 0.00 0.00 0.00 0.00 0.00 0.00 0.00 0.00 0.00 0.00 0.00 0.00 0.00 0.00 0.00 0.00 0.00 0.00 0.00 0.00 0.00 0.00
0.00 0.00 0.00 0.00 0.00 0.00 0.00 0.00 0.00 0.00 0.00 0.00 0.00 0.00 0.00 0.00 0.00 0.00 0.00 0.00 0.00 0.00 0.00 0.00 0.00 0.00 0.00 0.00 0.00 0.00 0.00 0.00 0.00 0.00 0.00 0.00 0.00 0.00 0.00 0.00 0.00 0.00 0.00 0.00 0.00 0.00 0.00 0.00 0.00
0.00 0.00 0.00 0.00 0.00 0.00 0.00 0.00 0.00 0.00 0.00 0.00 0.00 0.00 0.00 0.00 0.00 0.00 0.00 0.00 0.00 0.00 0.00 0.00 0.00 0.00 0.00 0.00 0.00 0.00 0.00 0.00 0.00 0.00 0.00 0.00 0.00 0.00 0.00 0.00 0.00 0.00 0.00 0.00 0.00 0.00 0.00 0.00 0.00
0.00 0.00 0.00 0.00 0.00 0.00 0.00 0.00 0.00 0.00 0.00 0.00 0.00 0.00 0.00 0.00 0.00 0.00 0.00 0.00 0.00 0.00 0.00 0.00 0.00 0.00 0.00 0.00 0.00 0.00 0.00 0.00 0.00 0.00 0.00 0.00 0.00 0.00 0.00 0.00 0.00 0.00 0.00 0.00 0.00 0.00 0.00 0.00 0.00
MSLP
1015.31 1016.13 1017.19 1018.34 1019.42 1020.29 1020.85 1021.06 1020.95 1020.59 1020.12 1019.66 1019.30 1019.10 1019.06 1019.15 1019.32 1019.49 1019.64 1019.76 1019.85 1019.95 1020.10 1020.32 1020.64 1021.04 1021.47 1021.90 1022.29 1022.61 1022.86 1023.05 1023.22 1023.39 1023.58 1023.82 1024.08 1024.35 1024.60 1024.80 1024.94 1025.01 1025.02 1024.99 1024.93 1024.88 1024.85 1024.83 1024.83
1015.68 1016.68 1017.85 1019.02 1020.04 1020.77 1021.12 1021.09 1020.73 1020.16 1019.50 1018.91 1018.47 1018.23 1018.19 1018.30 1018.50 1018.73 1018.94 1019.11 1019.27 1019.44 1019.66 1019.96 1020.33 1020.78 1021.25 1021.72 1022.14 1022.50 1022.79 1023.04 1023.27 1023.50 1023.76 1024.05 1024.35 1024.64 1024.91 1025.11 1025.24 1025.30 1025.30 1025.27 1025.22 1025.17 1025.15 1025.15 1025.16
1016.20 1017.30 1018.50 1019.61 1020.49 1021.01 1021.12 1020.85 1020.27 1019.52 1018.75 1018.10 1017.64 1017.43 1017.43 1017.60 1017.86 1018.15 1018.42 1018.66 1018.88 1019.10 1019.38 1019.72 1020.14 1020.61 1021.11 1021.59 1022.03 1022.41 1022.73 1023.01 1023.28 1023.56 1023.85 1024.16 1024.48 1024.78 1025.03 1025.23 1025.35 1025.42 1025.43 1025.41 1025.39 1025.37 1025.38 1025.41 1025.46
1016.82 1017.97 1019.11 1020.09 1020.76 1021.04 1020.90 1020.40 1019.65 1018.78 1017.97 1017.33 1016.93 1016.79 1016.88 1017.13 1017.46 1017.81 1018.13 1018.40 1018.66 1018.93 1019.23 1019.61 1020.04 1020.52 1021.02 1021.50 1021.93 1022.32 1022.64 1022.94 1023.23 1023.52 1023.83 1024.14 1024.45 1024.74 1024.99 1025.17 1025.30 1025.38 1025.42 1025.45 1025.48 1025.52 1025.57 1025.65 1025.74
1017.52 1018.63 1019.65 1020.44 1020.87 1020.90 1020.52 1019.84 1018.97 1018.07 1017.28 1016.71 1016.42 1016.39 1016.58 1016.91 1017.30 1017.69 1018.03 1018.33 1018.60 1018.88 1019.20 1019.58 1020.01 1020.48 1020.96 1021.41 1021.82 1022.19 1022.51 1022.80 1023.09 1023.39 1023.69 1024.01 1024.31 1024.59 1024.82 1025.01 1025.15 1025.26 1025.35 1025.43 1025.52 1025.63 1025.75 1025.88 1026.01
1018.19 1019.22 1020.07 1020.64 1020.82 1020.62 1020.06 1019.25 1018.34 1017.47 1016.77 1016.32 1016.16 1016.25 1016.53 1016.93 1017.35 1017.74 1018.08 1018.37 1018.63 1018.90 1019.22 1019.59 1020.00 1020.44 1020.89 1021.31 1021.68 1022.02 1022.32 1022.60 1022.89 1023.19 1023.50 1023.81 1024.11 1024.39 1024.62 1024.82 1024.98 1025.13 1025.27 1025.41 1025.57 1025.74 1025.91 1026.08 1026.25
1018.76 1019.65 1020.31 1020.65 1020.62 1020.23 1019.55 1018.70 1017.81 1017.03 1016.46 1016.17 1016.14 1016.34 1016.68 1017.10 1017.52 1017.88 1018.18 1018.43 1018.67 1018.92 1019.22 1019.57 1019.97 1020.38 1020.79 1021.17 1021.51 1021.81 1022.10 1022.38 1022.67 1022.98 1023.31 1023.63 1023.94 1024.23 1024.47 1024.68 1024.87 1025.05 1025.23 1025.43 1025.63 1025.85 1026.06 1026.26 1026.44
1019.14 1019.87 1020.34 1020.48 1020.27 1019.76 1019.02 1018.19 1017.39 1016.75 1016.34 1016.19 1016.28 1016.55 1016.92 1017.32 1017.68 1017.98 1018.22 1018.42 1018.63 1018.86 1019.16 1019.50 1019.88 1020.28 1020.66 1021.01 1021.32 1021.60 1021.88 1022.16 1022.47 1022.81 1023.17 1023.52 1023.86 1024.17 1024.43 1024.66 1024.86 1025.06 1025.26 1025.48 1025.71 1025.95 1026.19 1026.40 1026.57
1019.29 1019.85 1020.14 1020.12 1019.79 1019.22 1018.49 1017.73 1017.06 1016.57 1016.31 1016.28 1016.45 1016.75 1017.10 1017.45 1017.73 1017.95 1018.11 1018.27 1018.45 1018.68 1018.98 1019.34 1019.73 1020.13 1020.50 1020.84 1021.14 1021.41 1021.69 1021.99 1022.33 1022.71 1023.11 1023.51 1023.88 1024.21 1024.49 1024.73 1024.94 1025.13 1025.34 1025.56 1025.79 1026.03 1026.26 1026.46 1026.63
1019.23 1019.63 1019.77 1019.62 1019.22 1018.63 1017.96 1017.30 1016.76 1016.42 1016.28 1016.34 1016.54 1016.82 1017.12 1017.37 1017.56 1017.69 1017.79 1017.91 1018.08 1018.34 1018.68 1019.08 1019.51 1019.93 1020.31 1020.65 1020.95 1021.23 1021.53 1021.85 1022.23 1022.65 1023.10 1023.54 1023.95 1024.31 1024.61 1024.85 1025.05 1025.24 1025.43 1025.63 1025.84 1026.06 1026.27 1026.46 1026.60
1019.04 1019.30 1019.30 1019.07 1018.62 1018.06 1017.45 1016.90 1016.48 1016.24 1016.18 1016.27 1016.46 1016.68 1016.88 1017.03 1017.12 1017.17 1017.23 1017.33 1017.53 1017.84 1018.24 1018.70 1019.19 1019.66 1020.08 1020.44 1020.76 1021.05 1021.36 1021.72 1022.13 1022.59 1023.08 1023.57 1024.01 1024.40 1024.71 1024.95 1025.14 1025.31 1025.47 1025.64 1025.83 1026.03 1026.22 1026.38 1026.52
1018.83 1018.96 1018.86 1018.55 1018.09 1017.55 1017.00 1016.53 1016.19 1016.01 1015.97 1016.05 1016.18 1016.31 1016.40 1016.44 1016.43 1016.42 1016.45 1016.58 1016.82 1017.20 1017.67 1018.22 1018.78 1019.31 1019.77 1020.17 1020.51 1020.83 1021.16 1021.54 1021.98 1022.47 1022.99 1023.51 1023.98 1024.38 1024.71 1024.95 1025.13 1025.28 1025.43 1025.58 1025.75 1025.93 1026.11 1026.26 1026.39
1018.70 1018.72 1018.54 1018.18 1017.70 1017.17 1016.66 1016.23 1015.93 1015.75 1015.69 1015.70 1015.73 1015.75 1015.72 1015.66 1015.58 1015.53 1015.55 1015.71 1016.01 1016.45 1017.01 1017.64 1018.27 1018.86 1019.37 1019.81 1020.18 1020.52 1020.87 1021.26 1021.72 1022.22 1022.76 1023.29 1023.78 1024.20 1024.53 1024.79 1024.98 1025.14 1025.28 1025.44 1025.60 1025.78 1025.96 1026.11 1026.23
1018.76 1018.69 1018.43 1018.02 1017.52 1017.00 1016.49 1016.07 1015.74 1015.52 1015.38 1015.29 1015.21 1015.11 1014.98 1014.83 1014.69 1014.61 1014.64 1014.82 1015.16 1015.66 1016.28 1016.96 1017.65 1018.29 1018.85 1019.33 1019.73 1020.09 1020.46 1020.86 1021.31 1021.82 1022.35 1022.88 1023.38 1023.81 1024.17 1024.45 1024.67 1024.85 1025.03 1025.21 1025.40 1025.60 1025.79 1025.95 1026.07
1018.99 1018.84 1018.53 1018.09 1017.57 1017.03 1016.51 1016.06 1015.68 1015.38 1015.14 1014.94 1014.74 1014.53 1014.31 1014.08 1013.90 1013.80 1013.83 1014.01 1014.37 1014.89 1015.53 1016.24 1016.96 1017.63 1018.22 1018.73 1019.16 1019.55 1019.93 1020.33 1020.78 1021.27 1021.79 1022.31 1022.80 1023.24 1023.62 1023.94 1024.21 1024.45 1024.68 1024.91 1025.15 1025.38 1025.59 1025.77 1025.89
1019.34 1019.14 1018.79 1018.33 1017.80 1017.25 1016.71 1016.21 1015.77 1015.38 1015.04 1014.72 1014.42 1014.12 1013.82 1013.55 1013.32 1013.20 1013.21 1013.37 1013.71 1014.20 1014.82 1015.50 1016.21 1016.89 1017.50 1018.04 1018.50 1018.92 1019.32 1019.72 1020.16 1020.62 1021.11 1021.61 1022.09 1022.54 1022.94 1023.31 1023.64 1023.94 1024.24 1024.54 1024.84 1025.11 1025.36 1025.54 1025.66
1019.69 1019.47 1019.11 1018.66 1018.15 1017.60 1017.05 1016.51 1016.00 1015.53 1015.10 1014.69 1014.31 1013.94 1013.59 1013.28 1013.03 1012.88 1012.84 1012.96 1013.23 1013.64 1014.18 1014.81 1015.47 1016.13 1016.74 1017.30 1017.80 1018.25 1018.66 1019.07 1019.49 1019.93 1020.38 1020.84 1021.30 1021.75 1022.18 1022.58 1022.97 1023.35 1023.73 1024.10 1024.45 1024.77 1025.04 1025.23 1025.34
1019.93 1019.71 1019.39 1018.99 1018.52 1018.00 1017.46 1016.90 1016.35 1015.82 1015.32 1014.84 1014.40 1014.00 1013.63 1013.30 1013.03 1012.84 1012.75 1012.78 1012.95 1013.25 1013.68 1014.20 1014.79 1015.40 1016.01 1016.58 1017.11 1017.59 1018.03 1018.44 1018.84 1019.24 1019.64 1020.06 1020.48 1020.91 1021.35 1021.79 1022.23 1022.67 1023.11 1023.54 1023.95 1024.30 1024.59 1024.79 1024.88
1019.95 1019.78 1019.54 1019.22 1018.84 1018.39 1017.88 1017.34 1016.76 1016.19 1015.64 1015.13 1014.66 1014.24 1013.87 1013.54 1013.27 1013.04 1012.89 1012.84 1012.88 1013.05 1013.34 1013.74 1014.23 1014.79 1015.36 1015.94 1016.48 1016.99 1017.44 1017.85 1018.22 1018.57 1018.92 1019.28 1019.65 1020.05 1020.47 1020.92 1021.39 1021.88 1022.36 1022.84 1023.27 1023.66 1023.96 1024.16 1024.25
1019.76 1019.67 1019.54 1019.35 1019.08 1018.73 1018.28 1017.76 1017.19 1016.59 1016.02 1015.48 1015.01 1014.60 1014.24 1013.94 1013.67 1013.43 1013.23 1013.08 1013.01 1013.04 1013.19 1013.45 1013.84 1014.31 1014.85 1015.41 1015.96 1016.46 1016.91 1017.30 1017.63 1017.93 1018.21 1018.49 1018.79 1019.14 1019.52 1019.96 1020.43 1020.93 1021.44 1021.93 1022.39 1022.78 1023.10 1023.31 1023.42
1019.38 1019.42 1019.43 1019.40 1019.27 1019.03 1018.65 1018.16 1017.59 1016.98 1016.38 1015.84 1015.37 1014.98 1014.66 1014.39 1014.15 1013.91 1013.68 1013.47 1013.30 1013.21 1013.22 1013.35 1013.62 1014.01 1014.48 1015.00 1015.52 1016.01 1016.43 1016.78 1017.06 1017.28 1017.47 1017.66 1017.88 1018.15 1018.49 1018.88 1019.33 1019.82 1020.32 1020.81 1021.27 1021.67 1021.99 1022.23 1022.37
1018.96 1019.14 1019.32 1019.45 1019.46 1019.32 1019.01 1018.55 1017.96 1017.33 1016.70 1016.14 1015.67 1015.31 1015.04 1014.82 1014.63 1014.42 1014.19 1013.95 1013.71 1013.52 1013.42 1013.43 1013.59 1013.87 1014.26 1014.71 1015.18 1015.61 1015.98 1016.25 1016.45 1016.58 1016.67 1016.76 1016.89 1017.08 1017.34 1017.68 1018.09 1018.54 1019.00 1019.47 1019.92 1020.32 1020.66 1020.93 1021.12
1018.63 1018.96 1019.31 1019.59 1019.72 1019.67 1019.40 1018.93 1018.32 1017.64 1016.97 1016.38 1015.91 1015.57 1015.34 1015.19 1015.06 1014.90 1014.70 1014.46 1014.19 1013.93 1013.74 1013.65 1013.69 1013.87 1014.15 1014.51 1014.88 1015.23 1015.51 1015.69 1015.79 1015.82 1015.81 1015.80 1015.83 1015.93 1016.11 1016.38 1016.73 1017.12 1017.54 1017.97 1018.39 1018.78 1019.13 1019.44 1019.70
1018.50 1018.98 1019.47 1019.87 1020.10 1020.09 1019.82 1019.32 1018.65 1017.91 1017.18 1016.55 1016.07 1015.75 1015.57 1015.47 1015.41 1015.32 1015.17 1014.95 1014.67 1014.38 1014.12 1013.95 1013.88 1013.95 1014.11 1014.35 1014.61 1014.85 1015.01 1015.09 1015.08 1015.00 1014.89 1014.79 1014.73 1014.74 1014.85 1015.04 1015.31 1015.64 1016.00 1016.37 1016.75 1017.12 1017.48 1017.83 1018.15
1018.60 1019.20 1019.81 1020.29 1020.57 1020.56 1020.27 1019.71 1018.97 1018.15 1017.35 1016.68 1016.18 1015.87 1015.72 1015.68 1015.69 1015.67 1015.58 1015.39 1015.13 1014.82 1014.52 1014.27 1014.11 1014.06 1014.11 1014.22 1014.36 1014.47 1014.51 1014.48 1014.36 1014.18 1013.98 1013.79 1013.64 1013.58 1013.61 1013.73 1013.92 1014.17 1014.46 1014.77 1015.09 1015.43 1015.78 1016.14 1016.52
1018.88 1019.59 1020.26 1020.79 1021.06 1021.03 1020.68 1020.05 1019.23 1018.34 1017.48 1016.77 1016.25 1015.94 1015.82 1015.83 1015.89 1015.93 1015.89 1015.74 1015.50 1015.19 1014.86 1014.55 1014.32 1014.17 1014.11 1014.10 1014.11 1014.10 1014.03 1013.89 1013.67 1013.41 1013.12 1012.86 1012.65 1012.52 1012.48 1012.52 1012.64 1012.80 1013.00 1013.23 1013.49 1013.77 1014.08 1014.44 1014.84
1019.26 1020.02 1020.71 1021.23 1021.47 1021.38 1020.97 1020.27 1019.39 1018.44 1017.55 1016.81 1016.29 1015.99 1015.89 1015.93 1016.03 1016.10 1016.10 1015.98 1015.76 1015.45 1015.10 1014.76 1014.47 1014.26 1014.10 1013.99 1013.90 1013.78 1013.61 1013.38 1013.08 1012.75 1012.40 1012.08 1011.82 1011.63 1011.52 1011.48 1011.52 1011.59 1011.70 1011.83 1011.99 1012.20 1012.46 1012.78 1013.16
1019.60 1020.35 1021.02 1021.48 1021.66 1021.51 1021.03 1020.30 1019.39 1018.43 1017.54 1016.81 1016.30 1016.01 1015.93 1015.98 1016.09 1016.19 1016.20 1016.09 1015.88 1015.58 1015.23 1014.88 1014.56 1014.30 1014.08 1013.91 1013.73 1013.54 1013.29 1012.99 1012.63 1012.24 1011.85 1011.48 1011.17 1010.92 1010.75 1010.64 1010.58 1010.55 1010.56 1010.58 1010.64 1010.75 1010.93 1011.18 1011.52
1019.78 1020.48 1021.06 1021.44 1021.54 1021.32 1020.81 1020.06 1019.18 1018.25 1017.41 1016.73 1016.26 1016.01 1015.94 1016.00 1016.10 1016.18 1016.19 1016.08 1015.88 1015.58 1015.24 1014.90 1014.58 1014.30 1014.06 1013.85 1013.63 1013.38 1013.09 1012.74 1012.33 1011.90 1011.47 1011.05 1010.69 1010.39 1010.15 1009.96 1009.80 1009.68 1009.57 1009.49 1009.44 1009.44 1009.51 1009.67 1009.93
1019.75 1020.34 1020.81 1021.08 1021.08 1020.81 1020.30 1019.58 1018.76 1017.93 1017.19 1016.60 1016.20 1015.99 1015.93 1015.98 1016.06 1016.12 1016.09 1015.98 1015.76 1015.48 1015.16 1014.84 1014.54 1014.28 1014.04 1013.82 1013.58 1013.31 1012.98 1012.59 1012.15 1011.68 1011.21 1010.75 1010.34 1009.97 1009.66 1009.39 1009.14 1008.92 1008.70 1008.51 1008.34 1008.23 1008.20 1008.26 1008.43
Thickness
5738 5738 5736 5725 5701 5681 5682 5696 5705 5707 5711 5720 5723 5720 5714 5712 5707 5705 5717 5717 5715 5709 5704 5701 5696 5692 5689 5686 5683 5680 5678 5676 5674 5672 5671 5669 5667 5666 5665 5663 5662 5661 5660 5660 5659 5658 5658 5658 5658
5739 5739 5729 5712 5687 5673 5681 5700 5704 5713 5720 5722 5724 5721 5717 5716 5720 5715 5714 5715 5714 5710 5705 5702 5697 5693 5689 5686 5683 5680 5677 5675 5672 5670 5668 5666 5664 5663 5661 5660 5658 5657 5656 5655 5654 5653 5653 5653 5653
5741 5738 5718 5700 5686 5679 5692 5706 5708 5718 5722 5722 5721 5723 5722 5722 5722 5718 5721 5718 5714 5710 5706 5702 5698 5693 5689 5686 5682 5679 5676 5673 5671 5668 5666 5664 5662 5660 5658 5656 5654 5653 5652 5650 5649 5649 5648 5647 5647
5737 5725 5712 5695 5692 5698 5706 5714 5714 5714 5719 5722 5720 5719 5725 5732 5729 5728 5725 5719 5714 5709 5705 5701 5697 5693 5689 5686 5682 5679 5676 5673 5670 5667 5664 5662 5660 5658 5655 5653 5651 5649 5648 5646 5645 5644 5643 5643 5642
5731 5714 5700 5689 5695 5708 5717 5721 5718 5713 5716 5720 5720 5717 5721 5731 5731 5729 5725 5719 5714 5709 5704 5700 5696 5692 5688 5685 5681 5678 5675 5672 5669 5666 5663 5660 5658 5655 5653 5650 5648 5646 5644 5643 5641 5640 5639 5638 5637
5717 5705 5687 5682 5693 5708 5719 5726 5719 5716 5718 5719 5717 5716 5723 5725 5725 5725 5723 5718 5713 5708 5703 5698 5695 5691 5687 5683 5680 5677 5673 5670 5667 5664 5662 5659 5656 5653 5650 5648 5645 5643 5641 5639 5637 5636 5634 5633 5632
5712 5699 5690 5692 5692 5701 5718 5725 5720 5719 5719 5719 5721 5715 5720 5720 5721 5720 5718 5713 5707 5703 5699 5696 5693 5689 5685 5682 5678 5675 5672 5669 5666 5663 5660 5657 5654 5651 5648 5646 5643 5640 5638 5636 5634 5632 5630 5629 5628
5718 5700 5696 5692 5694 5700 5717 5724 5726 5722 5721 5729 5724 5715 5717 5721 5717 5713 5709 5705 5701 5698 5695 5693 5691 5688 5684 5680 5677 5673 5670 5667 5664 5661 5658 5655 5652 5649 5647 5643 5641 5638 5635 5633 5630 5628 5626 5624 5623
5721 5693 5685 5693 5698 5704 5717 5718 5724 5727 5724 5725 5724 5724 5726 5721 5713 5706 5701 5698 5695 5694 5692 5690 5688 5685 5682 5678 5675 5671 5668 5665 5662 5659 5656 5653 5650 5647 5644 5641 5638 5635 5632 5630 5627 5624 5622 5620 5618
5708 5687 5693 5705 5710 5711 5715 5715 5718 5718 5714 5717 5720 5719 5716 5714 5711 5707 5703 5700 5697 5695 5693 5690 5687 5683 5680 5676 5672 5670 5666 5663 5660 5657 5654 5651 5647 5644 5641 5637 5635 5632 5629 5626 5624 5621 5618 5616 5614
5709 5698 5705 5712 5717 5717 5714 5714 5717 5714 5707 5713 5717 5718 5708 5707 5706 5706 5706 5706 5705 5701 5694 5690 5686 5682 5678 5674 5671 5667 5664 5661 5658 5654 5651 5647 5643 5640 5637 5634 5631 5629 5626 5623 5620 5617 5614 5612 5609
5709 5710 5713 5715 5720 5717 5715 5715 5713 5711 5716 5725 5724 5721 5709 5705 5705 5706 5707 5706 5704 5698 5695 5691 5686 5682 5678 5673 5669 5665 5661 5658 5655 5652 5648 5644 5640 5636 5633 5630 5627 5624 5621 5618 5615 5612 5609 5606 5604
5707 5709 5715 5716 5714 5714 5714 5711 5710 5713 5725 5724 5722 5718 5711 5709 5709 5710 5710 5707 5702 5698 5695 5691 5686 5682 5677 5672 5668 5663 5659 5656 5652 5648 5644 5641 5636 5632 5628 5625 5622 5619 5616 5613 5609 5606 5603 5600 5598
5709 5709 5707 5710 5713 5714 5711 5708 5706 5717 5726 5722 5721 5718 5714 5713 5713 5708 5704 5703 5701 5700 5696 5691 5686 5682 5676 5671 5666 5663 5658 5653 5649 5645 5641 5637 5633 5628 5624 5620 5616 5613 5610 5607 5604 5600 5597 5594 5592
5706 5701 5700 5708 5711 5711 5709 5700 5704 5719 5719 5716 5716 5717 5717 5716 5713 5710 5710 5708 5705 5702 5697 5691 5686 5680 5675 5671 5666 5661 5656 5651 5646 5642 5638 5634 5630 5625 5620 5615 5612 5608 5605 5601 5597 5594 5590 5587 5585
5696 5687 5683 5699 5706 5705 5702 5688 5706 5715 5712 5710 5711 5712 5714 5715 5714 5714 5712 5709 5705 5700 5695 5690 5684 5678 5674 5669 5664 5659 5654 5649 5645 5640 5635 5631 5626 5621 5616 5611 5608 5603 5598 5595 5591 5587 5583 5581 5578
5678 5670 5674 5685 5700 5698 5693 5689 5705 5708 5707 5703 5704 5706 5710 5712 5713 5712 5711 5708 5705 5700 5694 5687 5682 5677 5672 5666 5661 5656 5651 5647 5642 5637 5632 5627 5622 5617 5612 5608 5603 5597 5592 5588 5584 5581 5577 5574 5571
5669 5668 5669 5672 5688 5691 5683 5684 5701 5704 5702 5697 5697 5699 5702 5705 5707 5710 5710 5708 5704 5698 5691 5685 5679 5674 5668 5660 5654 5649 5645 5642 5638 5634 5630 5624 5618 5612 5607 5603 5598 5591 5586 5582 5578 5575 5570 5568 5564
5673 5668 5663 5670 5683 5683 5679 5680 5693 5698 5696 5691 5691 5692 5694 5697 5701 5705 5706 5703 5698 5692 5687 5682 5676 5671 5662 5654 5649 5644 5642 5639 5635 5631 5627 5621 5615 5609 5603 5598 5592 5586 5582 5578 5573 5567 5562 5558 5551
5671 5665 5662 5669 5678 5675 5673 5674 5685 5693 5691 5688 5686 5685 5686 5688 5691 5693 5694 5693 5689 5685 5681 5677 5673 5667 5661 5656 5650 5644 5639 5634 5630 5625 5621 5616 5610 5605 5599 5594 5589 5583 5577 5572 5567 5560 5554 5550 5542
5667 5663 5663 5663 5665 5668 5667 5668 5676 5683 5683 5682 5680 5679 5679 5679 5678 5680 5681 5681 5679 5676 5673 5671 5667 5662 5657 5651 5643 5635 5629 5625 5621 5617 5615 5612 5607 5602 5596 5592 5585 5579 5573 5569 5563 5556 5548 5544 5537
5658 5669 5667 5664 5654 5647 5652 5643 5660 5672 5673 5673 5671 5669 5668 5668 5668 5668 5669 5669 5669 5667 5665 5662 5659 5654 5649 5642 5635 5629 5625 5623 5622 5618 5613 5608 5603 5598 5593 5587 5582 5576 5570 5566 5560 5552 5546 5538 5533
5665 5667 5663 5660 5652 5642 5643 5637 5646 5661 5661 5663 5663 5662 5661 5659 5658 5658 5658 5657 5657 5656 5654 5652 5649 5645 5640 5634 5629 5623 5620 5620 5616 5610 5605 5601 5597 5593 5588 5583 5577 5572 5567 5562 5556 5549 5542 5536 5531
5665 5657 5651 5641 5634 5634 5645 5634 5641 5649 5657 5657 5656 5653 5652 5650 5650 5649 5648 5648 5646 5645 5643 5641 5638 5635 5631 5625 5620 5615 5612 5609 5605 5601 5597 5595 5591 5587 5583 5577 5572 5568 5563 5558 5552 5544 5538 5533 5527
5655 5639 5627 5630 5622 5630 5640 5637 5641 5657 5661 5655 5648 5644 5643 5642 5640 5639 5639 5637 5636 5634 5632 5630 5628 5625 5621 5616 5612 5608 5604 5601 5597 5595 5591 5587 5583 5580 5576 5570 5566 5562 5558 5552 5546 5539 5533 5527 5522
5649 5637 5621 5616 5611 5616 5629 5630 5642 5652 5653 5648 5642 5638 5636 5635 5632 5632 5631 5628 5625 5625 5623 5620 5617 5614 5612 5608 5604 5600 5596 5592 5590 5587 5584 5580 5578 5575 5570 5564 5560 5556 5551 5545 5539 5533 5528 5522 5517
5644 5633 5629 5612 5609 5606 5613 5624 5638 5643 5639 5636 5632 5629 5628 5627 5627 5625 5623 5620 5617 5615 5613 5610 5608 5605 5602 5599 5595 5591 5588 5584 5581 5579 5575 5571 5569 5566 5562 5557 5552 5548 5543 5537 5531 5526 5522 5516 5512
5642 5629 5614 5609 5600 5594 5602 5612 5622 5631 5629 5628 5624 5622 5622 5621 5619 5618 5614 5611 5608 5606 5603 5601 5598 5595 5592 5589 5585 5583 5579 5575 5571 5567 5564 5561 5559 5555 5551 5546 5542 5538 5533 5528 5522 5519 5515 5508 5506
5627 5624 5616 5601 5594 5587 5586 5605 5628 5629 5626 5622 5619 5617 5615 5613 5611 5607 5604 5601 5598 5595 5592 5590 5588 5585 5582 5579 5575 5571 5567 5564 5559 5555 5552 5549 5546 5542 5538 5534 5530 5526 5523 5518 5513 5510 5505 5500 5498
5627 5622 5610 5600 5595 5586 5579 5601 5629 5624 5622 5619 5615 5612 5609 5607 5602 5598 5594 5590 5587 5584 5581 5579 5576 5573 5570 5567 5563 5559 5555 5550 5545 5541 5539 5535 5531 5528 5523 5520 5516 5513 5510 5506 5502 5500 5496 5491 5488